Location: A�t �Alizem
(31.2076°N, 8.7872°W)
Time: 01:32:01
(UTC+00:00)

Envisat - Pass Details

Date: 01 October 2021
Orbit: 764 x 766 km, 98.2° (Epoch: 17 October)

Event Time Altitude Azimuth Distance (km) Brightness Sun altitude
Rises 05:17:29 0° 18° (NNE) 3,232 6.6 -16.1°
Reaches altitude 10° 05:19:51 10° 23° (NNE) 2,302 5.9 -15.6°
Maximum altitude 05:24:48 53° 100° (E) 933 3.8 -14.5°
Drops below altitude 10° 05:29:44 10° 177° (S) 2,290 5.5 -13.5°
Sets 05:32:04 0° 182° (S) 3,212 6.2 -13.0°
